QPF
0.05 0.07 0.08 0.08 0.09 0.11 0.14 0.15 0.11 0.12 0.10 0.10 0.09 0.08 0.08 0.07 0.06 0.06 0.06 0.04 0.03 0.04 0.04 0.05 0.05 0.04 0.04 0.04 0.04 0.05 0.04 0.04 0.03 0.02 0.02 0.02 0.02 0.02 0.02 0.02 0.03 0.02 0.01
0.03 0.05 0.06 0.06 0.07 0.10 0.13 0.14 0.13 0.12 0.11 0.11 0.10 0.10 0.10 0.07 0.06 0.06 0.05 0.04 0.04 0.04 0.04 0.04 0.05 0.05 0.04 0.04 0.05 0.06 0.04 0.04 0.03 0.02 0.01 0.02 0.01 0.02 0.02 0.04 0.05 0.03 0.02
0.03 0.04 0.04 0.06 0.07 0.08 0.09 0.11 0.11 0.10 0.10 0.10 0.10 0.11 0.10 0.07 0.06 0.05 0.05 0.05 0.05 0.04 0.04 0.04 0.05 0.05 0.04 0.04 0.05 0.07 0.05 0.03 0.03 0.04 0.06 0.05 0.02 0.02 0.03 0.03 0.03 0.02 0.03
0.03 0.03 0.03 0.04 0.06 0.07 0.08 0.10 0.11 0.10 0.09 0.09 0.08 0.07 0.06 0.05 0.04 0.05 0.05 0.06 0.05 0.04 0.04 0.05 0.06 0.05 0.05 0.05 0.05 0.05 0.05 0.04 0.04 0.07 0.09 0.07 0.03 0.02 0.02 0.02 0.02 0.02 0.02
0.02 0.02 0.02 0.04 0.05 0.07 0.08 0.09 0.09 0.10 0.09 0.09 0.09 0.08 0.06 0.04 0.04 0.04 0.04 0.04 0.03 0.03 0.04 0.03 0.07 0.06 0.05 0.05 0.04 0.05 0.05 0.05 0.04 0.06 0.07 0.07 0.05 0.02 0.01 0.02 0.02 0.01 0.02
0.02 0.01 0.01 0.03 0.04 0.05 0.06 0.07 0.07 0.07 0.08 0.07 0.08 0.09 0.10 0.08 0.07 0.04 0.04 0.04 0.03 0.03 0.03 0.03 0.06 0.06 0.04 0.04 0.04 0.04 0.05 0.04 0.04 0.05 0.05 0.05 0.04 0.02 0.01 0.01 0.01 0.01 0.02
0.02 0.02 0.01 0.02 0.02 0.03 0.04 0.06 0.05 0.05 0.06 0.06 0.06 0.06 0.07 0.09 0.08 0.06 0.05 0.05 0.03 0.03 0.03 0.03 0.05 0.05 0.03 0.04 0.03 0.04 0.04 0.04 0.05 0.04 0.04 0.05 0.03 0.02 0.01 0.01 0.02 0.02 0.02
0.01 0.01 0.01 0.02 0.03 0.03 0.04 0.04 0.06 0.07 0.07 0.08 0.05 0.05 0.06 0.08 0.06 0.05 0.05 0.05 0.03 0.02 0.03 0.04 0.04 0.03 0.03 0.03 0.02 0.02 0.04 0.04 0.05 0.04 0.03 0.04 0.01 0.01 0.01 0.01 0.02 0.01 0.01
0.00 0.00 0.01 0.02 0.03 0.02 0.03 0.04 0.05 0.07 0.08 0.06 0.04 0.05 0.04 0.07 0.06 0.04 0.04 0.04 0.05 0.03 0.03 0.03 0.04 0.02 0.02 0.03 0.02 0.02 0.03 0.04 0.05 0.05 0.04 0.04 0.01 0.01 0.01 0.01 0.01 0.01 0.01
0.00 0.01 0.02 0.03 0.04 0.05 0.06 0.04 0.04 0.03 0.02 0.03 0.04 0.05 0.03 0.04 0.05 0.04 0.04 0.04 0.04 0.06 0.05 0.04 0.04 0.03 0.02 0.02 0.02 0.02 0.03 0.04 0.04 0.05 0.05 0.03 0.01 0.01 0.00 0.01 0.02 0.02 0.02
0.02 0.02 0.01 0.02 0.04 0.06 0.06 0.04 0.03 0.02 0.01 0.02 0.04 0.04 0.04 0.08 0.09 0.10 0.07 0.04 0.04 0.06 0.07 0.06 0.05 0.03 0.02 0.02 0.03 0.02 0.03 0.05 0.05 0.05 0.03 0.02 0.01 0.01 0.01 0.01 0.01 0.02 0.03
0.04 0.02 0.01 0.00 0.01 0.02 0.04 0.04 0.06 0.05 0.05 0.06 0.07 0.06 0.07 0.08 0.13 0.12 0.10 0.06 0.05 0.05 0.06 0.06 0.06 0.03 0.03 0.04 0.03 0.03 0.04 0.04 0.03 0.03 0.02 0.02 0.02 0.01 0.01 0.01 0.01 0.02 0.02
0.02 0.01 0.01 0.01 0.01 0.02 0.04 0.05 0.06 0.07 0.09 0.08 0.09 0.09 0.08 0.05 0.07 0.13 0.15 0.11 0.08 0.07 0.07 0.04 0.04 0.03 0.04 0.04 0.04 0.03 0.03 0.02 0.01 0.01 0.02 0.02 0.02 0.01 0.01 0.02 0.02 0.02 0.03
0.01 0.00 0.00 0.01 0.02 0.02 0.04 0.05 0.05 0.05 0.07 0.06 0.08 0.08 0.06 0.07 0.08 0.09 0.11 0.13 0.10 0.09 0.09 0.07 0.06 0.05 0.03 0.02 0.02 0.02 0.02 0.02 0.01 0.01 0.05 0.02 0.01 0.01 0.01 0.02 0.02 0.02 0.02
0.00 0.00 0.01 0.01 0.01 0.03 0.06 0.07 0.04 0.04 0.05 0.04 0.06 0.07 0.05 0.07 0.08 0.08 0.09 0.08 0.06 0.05 0.05 0.07 0.06 0.07 0.05 0.04 0.02 0.01 0.01 0.01 0.01 0.02 0.06 0.03 0.01 0.01 0.01 0.01 0.02 0.02 0.03
0.00 0.00 0.01 0.01 0.02 0.03 0.05 0.06 0.06 0.04 0.04 0.04 0.05 0.05 0.05 0.07 0.07 0.08 0.08 0.08 0.06 0.05 0.05 0.07 0.06 0.08 0.07 0.06 0.04 0.01 0.01 0.01 0.01 0.01 0.03 0.03 0.01 0.01 0.01 0.01 0.02 0.02 0.02
0.00 0.00 0.00 0.01 0.01 0.03 0.04 0.03 0.05 0.05 0.03 0.04 0.06 0.06 0.06 0.05 0.07 0.08 0.08 0.08 0.06 0.05 0.06 0.06 0.07 0.08 0.07 0.06 0.05 0.03 0.02 0.02 0.02 0.01 0.02 0.03 0.01 0.01 0.01 0.01 0.02 0.02 0.03
0.00 0.00 0.00 0.00 0.01 0.02 0.04 0.03 0.04 0.04 0.05 0.09 0.09 0.07 0.07 0.05 0.05 0.07 0.07 0.07 0.07 0.05 0.07 0.08 0.07 0.07 0.07 0.07 0.06 0.03 0.02 0.02 0.02 0.02 0.01 0.02 0.03 0.03 0.03 0.02 0.01 0.02 0.03
0.00 0.00 0.01 0.02 0.02 0.01 0.02 0.03 0.04 0.05 0.05 0.06 0.05 0.06 0.07 0.05 0.05 0.06 0.06 0.07 0.06 0.05 0.06 0.05 0.07 0.08 0.08 0.08 0.05 0.03 0.03 0.03 0.02 0.01 0.01 0.00 0.02 0.03 0.04 0.04 0.01 0.01 0.02
0.00 0.00 0.00 0.02 0.03 0.02 0.01 0.02 0.03 0.04 0.04 0.04 0.05 0.07 0.05 0.05 0.07 0.07 0.06 0.08 0.07 0.07 0.06 0.05 0.07 0.08 0.08 0.06 0.02 0.03 0.03 0.02 0.02 0.01 0.01 0.01 0.01 0.01 0.03 0.04 0.05 0.03 0.02
0.00 0.00 0.01 0.02 0.02 0.02 0.02 0.03 0.04 0.04 0.04 0.04 0.05 0.06 0.06 0.06 0.08 0.09 0.07 0.10 0.08 0.06 0.06 0.05 0.07 0.08 0.07 0.06 0.06 0.05 0.03 0.02 0.04 0.02 0.01 0.02 0.02 0.02 0.01 0.04 0.05 0.07 0.06
0.00 0.00 0.01 0.01 0.01 0.01 0.01 0.03 0.04 0.04 0.03 0.04 0.05 0.08 0.07 0.07 0.08 0.08 0.09 0.07 0.07 0.08 0.07 0.08 0.09 0.09 0.08 0.07 0.08 0.10 0.09 0.08 0.06 0.02 0.01 0.02 0.02 0.03 0.03 0.03 0.04 0.06 0.05
0.00 0.00 0.00 0.01 0.01 0.01 0.01 0.01 0.02 0.03 0.04 0.05 0.05 0.05 0.05 0.05 0.07 0.07 0.08 0.08 0.10 0.09 0.10 0.10 0.10 0.10 0.10 0.09 0.09 0.11 0.15 0.15 0.12 0.06 0.02 0.03 0.03 0.04 0.04 0.03 0.02 0.04 0.05
0.00 0.00 0.00 0.01 0.01 0.01 0.01 0.01 0.02 0.03 0.04 0.03 0.03 0.04 0.05 0.05 0.04 0.05 0.05 0.06 0.09 0.07 0.07 0.05 0.08 0.10 0.11 0.11 0.12 0.13 0.13 0.14 0.16 0.14 0.10 0.06 0.05 0.06 0.06 0.03 0.02 0.03 0.05
0.00 0.00 0.00 0.01 0.01 0.01 0.02 0.03 0.03 0.03 0.04 0.03 0.02 0.04 0.05 0.06 0.06 0.04 0.04 0.05 0.07 0.06 0.06 0.06 0.08 0.08 0.07 0.09 0.11 0.14 0.14 0.12 0.13 0.14 0.14 0.11 0.08 0.07 0.07 0.05 0.04 0.03 0.03
0.00 0.00 0.00 0.00 0.01 0.01 0.01 0.02 0.03 0.04 0.04 0.04 0.05 0.05 0.03 0.05 0.04 0.04 0.05 0.05 0.05 0.05 0.07 0.07 0.08 0.08 0.08 0.08 0.08 0.10 0.13 0.13 0.13 0.12 0.11 0.13 0.13 0.08 0.05 0.04 0.05 0.05 0.06
MSLP
1010.38 1010.45 1010.65 1010.99 1011.40 1011.81 1012.17 1012.42 1012.55 1012.58 1012.55 1012.52 1012.54 1012.62 1012.77 1012.95 1013.14 1013.29 1013.40 1013.48 1013.54 1013.63 1013.77 1013.98 1014.26 1014.56 1014.87 1015.12 1015.30 1015.39 1015.42 1015.41 1015.41 1015.44 1015.53 1015.68 1015.87 1016.08 1016.29 1016.47 1016.61 1016.71 1016.80
1009.83 1010.13 1010.55 1011.08 1011.63 1012.12 1012.48 1012.70 1012.76 1012.72 1012.65 1012.60 1012.64 1012.76 1012.97 1013.21 1013.43 1013.60 1013.71 1013.75 1013.78 1013.83 1013.94 1014.12 1014.37 1014.67 1014.96 1015.21 1015.38 1015.48 1015.51 1015.51 1015.53 1015.60 1015.73 1015.91 1016.14 1016.37 1016.58 1016.75 1016.87 1016.96 1017.03
1009.29 1009.77 1010.39 1011.07 1011.72 1012.28 1012.67 1012.86 1012.89 1012.82 1012.72 1012.67 1012.72 1012.88 1013.11 1013.37 1013.60 1013.77 1013.85 1013.87 1013.86 1013.88 1013.97 1014.15 1014.40 1014.70 1014.99 1015.24 1015.41 1015.50 1015.54 1015.56 1015.61 1015.71 1015.88 1016.11 1016.36 1016.61 1016.83 1016.99 1017.11 1017.19 1017.26
1008.80 1009.42 1010.15 1010.94 1011.68 1012.28 1012.70 1012.90 1012.94 1012.87 1012.78 1012.75 1012.81 1012.98 1013.22 1013.47 1013.68 1013.81 1013.86 1013.84 1013.82 1013.84 1013.94 1014.14 1014.42 1014.73 1015.03 1015.27 1015.43 1015.52 1015.56 1015.59 1015.66 1015.80 1016.01 1016.27 1016.56 1016.83 1017.06 1017.22 1017.34 1017.41 1017.48
1008.41 1009.08 1009.88 1010.72 1011.51 1012.15 1012.59 1012.83 1012.90 1012.87 1012.82 1012.82 1012.91 1013.09 1013.31 1013.53 1013.69 1013.77 1013.78 1013.75 1013.73 1013.77 1013.92 1014.16 1014.49 1014.83 1015.15 1015.39 1015.53 1015.59 1015.62 1015.64 1015.72 1015.88 1016.12 1016.42 1016.74 1017.03 1017.27 1017.44 1017.56 1017.64 1017.72
1008.13 1008.80 1009.60 1010.45 1011.25 1011.91 1012.39 1012.67 1012.80 1012.83 1012.84 1012.89 1013.01 1013.19 1013.38 1013.55 1013.65 1013.69 1013.66 1013.62 1013.63 1013.73 1013.94 1014.26 1014.65 1015.04 1015.37 1015.60 1015.72 1015.74 1015.73 1015.73 1015.80 1015.97 1016.23 1016.56 1016.91 1017.22 1017.48 1017.66 1017.78 1017.87 1017.96
1007.99 1008.62 1009.38 1010.19 1010.96 1011.63 1012.12 1012.45 1012.64 1012.75 1012.83 1012.94 1013.08 1013.25 1013.42 1013.54 1013.59 1013.57 1013.52 1013.50 1013.55 1013.73 1014.03 1014.44 1014.90 1015.34 1015.68 1015.90 1015.97 1015.95 1015.88 1015.84 1015.89 1016.06 1016.34 1016.69 1017.06 1017.40 1017.68 1017.87 1018.00 1018.10 1018.19
1007.99 1008.55 1009.24 1009.99 1010.72 1011.35 1011.86 1012.21 1012.46 1012.63 1012.77 1012.93 1013.10 1013.27 1013.40 1013.48 1013.49 1013.44 1013.39 1013.40 1013.51 1013.77 1014.17 1014.67 1015.20 1015.68 1016.03 1016.21 1016.24 1016.15 1016.02 1015.94 1015.96 1016.12 1016.41 1016.79 1017.19 1017.57 1017.86 1018.07 1018.20 1018.29 1018.39
1008.11 1008.60 1009.22 1009.89 1010.56 1011.15 1011.63 1011.99 1012.25 1012.47 1012.65 1012.84 1013.03 1013.20 1013.32 1013.38 1013.36 1013.31 1013.27 1013.32 1013.49 1013.83 1014.31 1014.89 1015.47 1015.98 1016.32 1016.47 1016.44 1016.29 1016.11 1015.98 1015.98 1016.14 1016.44 1016.85 1017.29 1017.69 1018.01 1018.22 1018.35 1018.43 1018.51
1008.31 1008.75 1009.30 1009.91 1010.50 1011.03 1011.46 1011.79 1012.05 1012.27 1012.48 1012.69 1012.89 1013.07 1013.19 1013.24 1013.23 1013.19 1013.18 1013.27 1013.50 1013.90 1014.44 1015.06 1015.67 1016.18 1016.50 1016.61 1016.54 1016.34 1016.11 1015.94 1015.92 1016.08 1016.41 1016.85 1017.33 1017.76 1018.11 1018.34 1018.46 1018.52 1018.57
1008.55 1008.96 1009.47 1010.02 1010.54 1010.99 1011.35 1011.63 1011.86 1012.06 1012.26 1012.48 1012.69 1012.89 1013.03 1013.10 1013.12 1013.11 1013.14 1013.27 1013.55 1013.98 1014.55 1015.18 1015.79 1016.27 1016.56 1016.63 1016.51 1016.27 1016.01 1015.83 1015.80 1015.97 1016.32 1016.80 1017.31 1017.78 1018.15 1018.40 1018.52 1018.56 1018.57
1008.77 1009.19 1009.68 1010.18 1010.63 1011.01 1011.30 1011.51 1011.67 1011.83 1012.02 1012.23 1012.46 1012.68 1012.87 1012.99 1013.06 1013.11 1013.19 1013.36 1013.66 1014.10 1014.65 1015.26 1015.83 1016.27 1016.52 1016.55 1016.40 1016.14 1015.86 1015.67 1015.64 1015.82 1016.19 1016.69 1017.24 1017.74 1018.14 1018.40 1018.52 1018.55 1018.54
1008.94 1009.38 1009.86 1010.33 1010.73 1011.04 1011.26 1011.39 1011.50 1011.61 1011.76 1011.98 1012.23 1012.50 1012.74 1012.94 1013.09 1013.21 1013.35 1013.55 1013.85 1014.27 1014.79 1015.34 1015.84 1016.23 1016.42 1016.42 1016.25 1015.97 1015.69 1015.50 1015.47 1015.66 1016.03 1016.54 1017.10 1017.63 1018.06 1018.34 1018.48 1018.51 1018.48
1009.03 1009.50 1009.98 1010.43 1010.79 1011.05 1011.20 1011.28 1011.33 1011.40 1011.53 1011.75 1012.03 1012.36 1012.68 1012.97 1013.21 1013.41 1013.61 1013.84 1014.14 1014.52 1014.97 1015.44 1015.87 1016.19 1016.34 1016.31 1016.12 1015.84 1015.56 1015.36 1015.33 1015.49 1015.85 1016.35 1016.91 1017.44 1017.89 1018.20 1018.37 1018.42 1018.40
1009.04 1009.51 1009.99 1010.43 1010.77 1011.00 1011.12 1011.15 1011.17 1011.22 1011.34 1011.57 1011.89 1012.27 1012.68 1013.06 1013.40 1013.69 1013.94 1014.20 1014.48 1014.82 1015.20 1015.59 1015.94 1016.19 1016.29 1016.24 1016.05 1015.77 1015.49 1015.28 1015.22 1015.34 1015.65 1016.10 1016.63 1017.15 1017.61 1017.96 1018.17 1018.26 1018.27
1008.97 1009.44 1009.91 1010.34 1010.67 1010.89 1010.99 1011.03 1011.03 1011.08 1011.21 1011.45 1011.81 1012.25 1012.72 1013.19 1013.61 1013.97 1014.28 1014.55 1014.83 1015.12 1015.43 1015.75 1016.03 1016.22 1016.29 1016.23 1016.03 1015.76 1015.48 1015.25 1015.13 1015.19 1015.42 1015.79 1016.26 1016.75 1017.20 1017.57 1017.83 1017.98 1018.05
1008.85 1009.30 1009.76 1010.17 1010.51 1010.74 1010.86 1010.91 1010.94 1011.00 1011.15 1011.41 1011.79 1012.26 1012.78 1013.30 1013.78 1014.20 1014.54 1014.84 1015.10 1015.36 1015.62 1015.87 1016.09 1016.25 1016.30 1016.24 1016.06 1015.80 1015.50 1015.24 1015.07 1015.03 1015.15 1015.42 1015.79 1016.21 1016.64 1017.02 1017.32 1017.54 1017.68
1008.74 1009.15 1009.58 1009.99 1010.33 1010.59 1010.76 1010.85 1010.92 1011.02 1011.19 1011.46 1011.84 1012.31 1012.84 1013.38 1013.88 1014.32 1014.69 1014.99 1015.24 1015.47 1015.69 1015.91 1016.10 1016.23 1016.29 1016.24 1016.08 1015.84 1015.54 1015.25 1015.00 1014.87 1014.86 1014.99 1015.24 1015.57 1015.94 1016.31 1016.64 1016.91 1017.13
1008.65 1009.02 1009.42 1009.82 1010.18 1010.48 1010.71 1010.87 1011.00 1011.14 1011.32 1011.59 1011.96 1012.40 1012.90 1013.41 1013.90 1014.33 1014.69 1014.99 1015.23 1015.45 1015.65 1015.84 1016.02 1016.16 1016.23 1016.21 1016.09 1015.87 1015.58 1015.26 1014.95 1014.71 1014.58 1014.56 1014.66 1014.87 1015.16 1015.48 1015.81 1016.12 1016.38
1008.61 1008.95 1009.32 1009.71 1010.10 1010.44 1010.74 1010.98 1011.18 1011.36 1011.57 1011.82 1012.14 1012.53 1012.96 1013.41 1013.85 1014.24 1014.58 1014.86 1015.10 1015.30 1015.50 1015.69 1015.87 1016.02 1016.13 1016.15 1016.08 1015.90 1015.63 1015.30 1014.94 1014.61 1014.35 1014.19 1014.14 1014.21 1014.37 1014.62 1014.90 1015.20 1015.49
1008.61 1008.93 1009.28 1009.67 1010.08 1010.48 1010.84 1011.16 1011.43 1011.66 1011.89 1012.12 1012.39 1012.70 1013.05 1013.41 1013.77 1014.11 1014.41 1014.67 1014.89 1015.10 1015.29 1015.49 1015.69 1015.87 1016.01 1016.08 1016.06 1015.94 1015.71 1015.39 1015.01 1014.61 1014.24 1013.94 1013.75 1013.66 1013.69 1013.82 1014.02 1014.27 1014.54
1008.61 1008.93 1009.28 1009.67 1010.11 1010.55 1010.98 1011.37 1011.71 1011.99 1012.24 1012.46 1012.67 1012.90 1013.15 1013.43 1013.71 1013.98 1014.24 1014.47 1014.69 1014.89 1015.10 1015.31 1015.52 1015.73 1015.91 1016.03 1016.07 1016.00 1015.83 1015.54 1015.17 1014.74 1014.30 1013.89 1013.55 1013.32 1013.19 1013.18 1013.26 1013.43 1013.64
1008.57 1008.91 1009.27 1009.67 1010.12 1010.60 1011.09 1011.54 1011.95 1012.28 1012.55 1012.75 1012.93 1013.09 1013.26 1013.45 1013.66 1013.87 1014.10 1014.32 1014.53 1014.74 1014.95 1015.17 1015.40 1015.63 1015.83 1016.00 1016.10 1016.10 1015.99 1015.75 1015.42 1014.99 1014.52 1014.04 1013.60 1013.22 1012.95 1012.78 1012.73 1012.78 1012.91
1008.44 1008.82 1009.19 1009.60 1010.07 1010.57 1011.09 1011.60 1012.06 1012.44 1012.73 1012.94 1013.09 1013.21 1013.32 1013.45 1013.60 1013.78 1013.98 1014.20 1014.42 1014.64 1014.87 1015.09 1015.33 1015.56 1015.78 1015.97 1016.11 1016.18 1016.14 1015.98 1015.71 1015.32 1014.86 1014.35 1013.84 1013.37 1012.96 1012.66 1012.47 1012.39 1012.41
1008.17 1008.61 1009.01 1009.43 1009.89 1010.41 1010.95 1011.49 1011.99 1012.40 1012.72 1012.94 1013.09 1013.18 1013.26 1013.36 1013.49 1013.65 1013.85 1014.08 1014.32 1014.56 1014.79 1015.02 1015.25 1015.47 1015.69 1015.90 1016.07 1016.18 1016.21 1016.13 1015.95 1015.63 1015.22 1014.73 1014.20 1013.67 1013.18 1012.76 1012.45 1012.25 1012.18
1007.77 1008.26 1008.69 1009.11 1009.58 1010.09 1010.65 1011.20 1011.72 1012.16 1012.50 1012.73 1012.88 1012.97 1013.04 1013.13 1013.25 1013.43 1013.64 1013.89 1014.15 1014.41 1014.66 1014.89 1015.10 1015.31 1015.51 1015.70 1015.88 1016.03 1016.12 1016.13 1016.03 1015.82 1015.49 1015.07 1014.57 1014.03 1013.51 1013.02 1012.63 1012.34 1012.17
Thickness
5777 5776 5773 5772 5771 5770 5769 5769 5768 5767 5767 5766 5766 5766 5766 5765 5764 5764 5763 5762 5761 5761 5759 5759 5758 5758 5758 5757 5756 5755 5754 5754 5753 5753 5752 5751 5750 5749 5748 5747 5747 5746 5744
5781 5776 5772 5771 5769 5768 5767 5767 5766 5765 5765 5765 5764 5764 5764 5763 5763 5762 5761 5761 5760 5759 5758 5758 5757 5757 5756 5755 5755 5754 5753 5753 5752 5751 5750 5750 5748 5747 5747 5747 5747 5744 5743
5783 5776 5772 5770 5768 5767 5766 5765 5765 5764 5764 5764 5763 5763 5763 5762 5761 5761 5760 5760 5759 5758 5757 5757 5756 5755 5754 5754 5753 5753 5752 5752 5751 5750 5750 5749 5748 5746 5746 5746 5745 5743 5742
5784 5778 5773 5769 5768 5766 5765 5764 5764 5763 5762 5762 5762 5762 5761 5761 5760 5759 5759 5758 5758 5757 5756 5756 5755 5754 5753 5753 5752 5752 5751 5751 5751 5750 5750 5750 5748 5745 5745 5745 5743 5742 5741
5784 5777 5772 5769 5767 5766 5765 5763 5762 5762 5761 5761 5761 5760 5760 5759 5759 5759 5758 5757 5757 5756 5756 5755 5754 5753 5753 5752 5751 5751 5751 5751 5751 5750 5750 5749 5747 5745 5744 5744 5743 5742 5741
5784 5777 5771 5769 5767 5765 5764 5763 5761 5761 5760 5760 5759 5759 5758 5758 5758 5758 5757 5757 5756 5756 5755 5754 5753 5753 5752 5751 5751 5751 5751 5751 5751 5751 5751 5749 5746 5745 5744 5743 5742 5741 5741
5785 5778 5771 5769 5767 5765 5763 5762 5760 5760 5759 5759 5758 5758 5757 5757 5757 5757 5757 5756 5755 5755 5754 5754 5752 5752 5751 5751 5751 5750 5751 5751 5752 5753 5751 5749 5746 5745 5743 5743 5742 5741 5740
5787 5780 5772 5768 5767 5765 5763 5761 5760 5759 5759 5758 5757 5757 5756 5756 5756 5756 5756 5755 5755 5754 5753 5753 5752 5751 5751 5750 5750 5750 5750 5751 5753 5755 5752 5749 5747 5745 5744 5742 5742 5741 5740
5790 5782 5775 5770 5767 5765 5763 5762 5760 5759 5759 5758 5757 5757 5757 5756 5756 5756 5755 5755 5755 5754 5753 5752 5751 5751 5750 5750 5750 5750 5750 5751 5752 5754 5752 5749 5747 5745 5744 5743 5742 5741 5740
5790 5786 5780 5776 5771 5768 5765 5762 5761 5760 5759 5758 5758 5757 5757 5757 5757 5756 5755 5755 5755 5754 5753 5752 5751 5750 5750 5750 5750 5750 5751 5751 5753 5754 5752 5749 5747 5745 5744 5743 5742 5741 5740
5788 5787 5785 5780 5775 5772 5768 5764 5762 5760 5759 5759 5758 5757 5757 5757 5757 5756 5756 5755 5755 5754 5753 5752 5751 5751 5750 5750 5750 5751 5751 5752 5755 5755 5753 5750 5748 5746 5745 5743 5742 5741 5740
5785 5786 5786 5783 5779 5776 5773 5767 5765 5764 5761 5760 5760 5759 5758 5758 5758 5758 5756 5756 5755 5754 5753 5752 5752 5751 5751 5751 5752 5752 5753 5755 5756 5756 5753 5751 5749 5747 5745 5744 5743 5742 5741
5791 5789 5787 5785 5782 5778 5774 5771 5769 5767 5764 5762 5761 5760 5759 5759 5758 5758 5756 5755 5755 5754 5754 5753 5752 5752 5753 5754 5754 5754 5755 5757 5758 5756 5753 5751 5749 5748 5747 5745 5744 5743 5742
5795 5792 5790 5787 5782 5779 5776 5773 5771 5769 5766 5765 5762 5761 5760 5759 5759 5758 5757 5757 5756 5756 5755 5755 5754 5754 5755 5756 5756 5757 5757 5758 5758 5757 5753 5751 5750 5750 5748 5747 5746 5744 5743
5797 5795 5792 5788 5782 5779 5776 5774 5773 5771 5769 5767 5764 5762 5762 5761 5759 5759 5758 5758 5758 5757 5757 5756 5756 5756 5756 5757 5757 5758 5758 5759 5759 5757 5754 5752 5751 5751 5750 5748 5747 5745 5744
5800 5797 5794 5789 5784 5780 5777 5775 5774 5773 5770 5769 5766 5764 5763 5762 5761 5759 5759 5758 5759 5758 5758 5757 5757 5757 5757 5757 5758 5759 5760 5760 5760 5758 5756 5754 5753 5752 5751 5750 5748 5747 5745
5804 5801 5796 5792 5787 5782 5780 5778 5777 5775 5773 5770 5768 5765 5763 5763 5762 5760 5759 5759 5759 5759 5759 5758 5758 5757 5757 5758 5758 5760 5760 5761 5761 5760 5758 5756 5755 5754 5752 5751 5750 5749 5747
5809 5804 5800 5799 5792 5786 5783 5781 5780 5778 5775 5771 5768 5767 5765 5763 5762 5761 5760 5760 5760 5759 5759 5758 5757 5757 5757 5757 5758 5759 5761 5761 5761 5761 5760 5759 5758 5757 5755 5753 5752 5750 5749
5813 5808 5803 5800 5795 5791 5787 5784 5782 5779 5777 5774 5772 5769 5767 5765 5764 5762 5761 5761 5761 5760 5760 5759 5759 5757 5755 5756 5757 5760 5761 5762 5762 5763 5762 5762 5761 5760 5759 5756 5754 5752 5751
5818 5812 5807 5802 5798 5794 5790 5786 5783 5781 5779 5777 5774 5772 5769 5767 5766 5764 5762 5762 5762 5761 5760 5760 5758 5758 5757 5756 5758 5760 5761 5763 5763 5764 5764 5765 5764 5763 5762 5760 5757 5754 5752
5821 5815 5809 5804 5800 5796 5792 5787 5783 5781 5781 5779 5778 5775 5772 5770 5767 5765 5764 5763 5762 5761 5760 5760 5759 5757 5756 5758 5755 5754 5759 5764 5763 5765 5766 5766 5766 5766 5765 5763 5760 5757 5755
5824 5819 5813 5808 5804 5799 5796 5792 5789 5786 5785 5784 5782 5778 5775 5772 5769 5768 5765 5763 5763 5762 5760 5760 5758 5755 5755 5757 5752 5747 5746 5752 5760 5767 5766 5765 5766 5766 5765 5764 5762 5760 5758
5829 5823 5819 5813 5809 5804 5801 5796 5793 5789 5786 5783 5781 5778 5778 5775 5772 5770 5767 5765 5764 5763 5761 5760 5759 5756 5752 5755 5755 5748 5741 5740 5748 5758 5763 5764 5765 5764 5764 5763 5762 5762 5760
5836 5832 5826 5819 5813 5809 5804 5799 5793 5787 5783 5783 5783 5781 5780 5778 5775 5773 5770 5768 5766 5765 5763 5761 5760 5758 5754 5750 5752 5753 5750 5749 5742 5743 5753 5760 5762 5761 5760 5761 5762 5761 5760
5844 5837 5830 5823 5817 5812 5808 5803 5797 5792 5790 5789 5787 5782 5780 5779 5777 5775 5773 5770 5768 5766 5765 5763 5761 5758 5756 5753 5750 5750 5749 5749 5747 5740 5740 5748 5754 5758 5759 5759 5759 5759 5758
5848 5842 5835 5825 5819 5815 5810 5806 5800 5795 5792 5789 5786 5782 5780 5779 5779 5777 5775 5772 5769 5767 5766 5764 5762 5759 5757 5755 5753 5751 5749 5746 5744 5743 5740 5742 5744 5751 5756 5758 5757 5757 5755